Theta_e
284 278 271 278 279 281 280 278 277 280 284 283 281 281 284 288 288 287 287 289 290 290 292 292 293 294 295 296 298 303 306 312 319 325 327 328 327 329 331 332 332 331 331 329
275 273 281 283 284 282 281 279 278 281 284 283 282 281 285 287 287 288 288 288 289 291 290 292 292 291 293 294 295 297 299 307 317 320 321 324 328 328 330 331 331 331 330 329
278 280 285 283 281 279 278 277 277 278 282 283 281 280 283 287 286 287 288 288 288 290 290 291 291 291 290 291 292 295 298 313 315 319 321 320 323 325 326 328 328 330 330 328
279 283 283 280 278 279 274 282 282 280 278 272 282 271 278 282 281 282 283 283 284 285 289 290 291 291 291 291 293 296 307 310 314 315 319 319 321 322 323 326 328 329 330 329
276 280 279 277 280 283 279 284 281 280 277 277 277 275 273 278 277 279 282 283 284 286 287 288 289 292 292 292 296 302 304 306 309 311 314 321 320 323 325 326 327 327 326 327
277 285 282 282 285 285 285 278 278 275 277 268 269 271 271 274 276 278 281 282 284 286 287 288 290 290 293 297 298 300 302 303 306 308 311 316 320 322 323 324 324 325 325 325
274 274 281 286 280 283 279 273 262 262 261 263 271 274 271 276 278 279 279 281 285 287 288 287 288 291 297 297 296 299 301 304 305 305 309 312 314 320 322 322 322 323 323 324
263 268 271 282 282 278 274 273 270 262 262 267 271 268 274 278 280 281 281 282 285 288 289 287 290 294 294 295 296 298 300 301 301 302 302 304 307 309 317 322 322 322 322 320
269 267 279 281 284 280 274 270 278 272 266 267 266 272 278 278 277 279 279 280 282 286 289 289 291 291 293 293 293 294 297 297 297 298 299 298 299 302 302 301 303 302 303 306
273 269 273 277 285 281 273 277 268 270 266 260 265 266 267 271 272 275 276 277 280 283 287 288 289 290 291 292 294 294 294 294 294 295 296 296 296 297 297 297 297 297 300 299
274 273 272 278 277 272 275 271 272 275 272 265 265 266 274 273 274 275 275 277 279 281 284 286 287 288 289 290 291 291 292 292 292 292 293 293 293 294 294 293 293 294 295 295
278 277 272 270 280 282 276 274 275 270 268 270 269 268 277 276 276 277 276 278 280 281 282 284 285 285 286 287 287 288 289 289 290 291 291 291 293 291 291 290 291 294 294 292
279 268 266 271 276 279 275 277 277 276 276 270 266 268 278 276 276 276 276 278 279 279 281 282 283 283 284 285 286 286 286 287 288 289 288 288 288 289 288 289 289 290 290 290
282 276 275 268 272 276 273 275 276 275 268 270 270 270 273 273 274 275 276 277 278 279 279 280 281 282 283 284 284 285 285 285 286 286 286 285 286 286 287 287 288 288 289 288
274 263 272 273 273 275 278 274 274 273 274 271 272 271 272 274 274 275 277 277 277 277 278 279 279 280 282 283 283 284 284 284 285 284 284 283 285 285 285 285 285 286 286 286
277 263 268 264 276 278 276 277 275 273 274 274 275 272 277 277 277 276 276 276 276 276 278 279 279 280 280 282 282 283 283 284 284 283 283 284 283 283 283 283 284 284 284 284
271 264 260 262 270 270 267 272 272 274 274 274 271 275 279 276 275 275 275 276 276 276 277 278 279 280 280 280 282 282 283 284 283 283 283 283 283 282 282 283 282 282 282 283
265 261 263 262 263 260 272 278 274 272 275 275 276 277 279 278 279 278 278 277 277 277 277 278 279 279 280 281 281 282 282 282 281 281 281 282 282 281 281 281 281 281 281 281
276 264 260 268 262 267 273 274 272 273 274 277 275 277 278 280 282 279 278 278 278 278 279 279 279 280 280 280 281 281 280 280 280 280 280 280 281 281 281 280 280 280 280 280
274 272 264 257 259 260 272 274 275 275 267 277 277 276 276 278 273 275 277 277 277 279 279 278 278 278 278 279 280 279 278 279 278 279 279 280 280 280 279 279 279 280 280 280
254 254 259 254 257 265 272 275 276 265 270 277 277 276 276 274 276 276 277 276 277 277 277 277 276 275 275 277 278 277 276 276 278 279 279 279 280 280 280 279 279 279 278 278
263 260 257 254 256 262 274 275 272 275 278 278 276 276 275 275 276 275 275 275 275 274 274 275 273 272 272 273 275 274 273 274 276 277 277 277 277 279 279 277 277 277 277 276
263 268 264 268 268 274 274 275 276 278 278 277 276 276 276 275 272 272 272 272 271 271 272 271 270 270 269 269 270 270 269 271 273 274 273 274 275 277 277 275 275 275 275 274
268 268 266 267 269 272 274 275 277 278 277 278 277 277 276 273 271 271 269 269 267 266 265 264 265 266 265 265 266 265 266 268 268 269 270 271 271 272 272 275 275 274 274 273
269 269 266 267 268 267 271 273 276 275 273 272 270 272 273 275 273 272 270 268 266 264 262 261 261 262 261 261 262 261 263 265 267 268 268 269 271 270 271 272 271 273 273 274
269 270 270 269 273 274 274 275 273 272 270 269 271 269 268 270 273 270 268 266 265 264 264 264 264 263 262 262 262 261 262 264 265 268 268 268 268 268 269 269 271 282 282 283
Wind_Speed
3 3 5 11 10 14 15 18 21 22 24 21 23 25 25 23 19 19 18 17 17 16 12 8 8 9 8 6 8 4 1 3 3 3 5 5 6 8 10 10 14 14 13 15
6 5 7 7 8 11 14 20 22 16 16 11 17 21 22 24 23 18 17 16 17 17 10 8 8 8 8 6 3 2 2 4 3 3 4 3 5 8 5 6 8 10 13 14
2 9 13 7 11 13 10 14 15 19 16 12 19 13 9 8 8 10 7 7 9 14 15 11 8 10 7 7 7 7 5 5 1 3 3 2 1 2 4 8 8 9 12 12
6 6 5 13 11 9 10 8 18 23 17 11 4 11 5 8 9 16 12 10 10 9 10 8 8 9 7 9 6 5 5 5 4 0 2 7 7 7 8 9 9 10 12 13
9 7 7 10 7 2 14 16 21 23 21 15 9 7 2 6 12 20 17 17 16 14 10 9 9 12 9 5 6 4 2 2 1 1 0 2 7 7 7 6 9 10 7 9
9 5 4 6 13 15 15 12 20 5 3 3 4 3 4 9 15 19 19 16 15 17 16 13 10 8 3 5 3 4 1 2 2 2 2 3 8 8 11 9 9 7 6 6
9 6 6 4 8 6 18 10 6 8 5 6 3 3 6 12 15 13 18 19 24 17 13 13 11 5 7 6 5 4 3 3 4 4 3 4 4 8 8 9 7 7 7 6
4 12 5 6 5 11 9 3 4 7 4 8 0 4 3 14 14 16 16 17 18 11 7 5 4 7 8 6 5 5 1 1 3 3 3 3 3 2 4 8 4 5 6 3
4 9 6 3 5 5 10 9 8 6 4 3 2 4 4 20 20 19 18 19 19 15 8 6 8 8 9 6 6 5 3 4 3 3 3 5 4 4 5 8 7 4 3 4
4 8 4 7 7 5 7 7 7 5 7 7 3 3 8 24 23 20 19 16 17 16 9 8 11 10 9 7 6 6 5 5 3 5 5 4 5 6 6 6 8 7 8 5
2 4 10 3 4 5 11 8 4 3 2 5 7 3 10 18 19 19 16 16 15 14 9 9 10 10 10 9 8 7 8 6 6 7 5 6 7 8 8 9 9 8 4 6
3 3 7 9 5 6 3 8 5 3 6 3 5 3 14 15 15 15 15 13 12 10 10 10 10 10 10 9 9 8 8 7 8 7 7 8 8 9 9 10 9 7 9 9
1 3 6 13 6 5 5 15 11 5 3 4 6 7 11 13 14 15 14 12 10 10 12 11 12 12 10 8 9 9 8 9 10 9 9 11 10 10 12 11 10 11 11 10
2 2 4 5 7 3 9 16 14 6 2 8 5 12 15 17 16 15 14 13 10 12 13 13 13 12 10 9 9 8 10 10 10 10 11 13 12 11 11 10 11 11 11 11
4 3 3 9 12 3 3 11 15 8 10 6 9 10 16 17 14 13 12 12 14 15 16 15 14 12 11 9 9 9 11 12 10 12 12 14 12 12 13 13 13 12 14 12
2 3 2 6 5 6 4 10 8 7 12 4 10 2 8 15 14 17 16 15 16 16 16 18 17 14 12 10 10 12 12 11 11 13 13 13 13 14 14 13 13 12 13 13
2 2 4 6 5 4 6 6 5 4 7 8 7 7 5 15 17 17 17 17 18 18 17 14 12 11 11 12 12 12 11 10 14 13 16 15 13 14 12 11 11 11 12 11
2 3 1 5 5 4 8 2 4 4 5 9 6 12 11 2 8 14 16 14 15 14 12 12 12 14 14 13 11 12 13 14 16 15 14 12 13 11 9 11 10 10 9 10
5 3 2 2 1 5 4 2 2 3 3 5 5 9 9 11 4 12 16 14 12 12 12 11 11 11 12 14 11 12 14 14 15 14 12 11 9 9 8 10 9 8 8 9
5 3 4 3 4 5 4 3 2 4 5 3 4 5 5 9 8 5 14 13 13 12 12 12 12 12 14 14 12 14 15 14 14 11 10 9 9 10 9 7 7 6 7 8
2 4 4 1 3 9 5 1 4 7 5 2 1 2 5 4 2 4 7 9 10 10 13 12 12 12 12 12 10 14 13 14 10 9 8 10 9 7 7 7 5 5 7 7
6 6 4 3 4 7 2 3 4 4 3 5 3 2 3 3 3 4 6 8 9 10 10 10 9 11 11 12 9 11 12 10 8 7 6 8 7 6 5 5 3 5 5 6
3 8 6 9 7 3 5 4 1 3 5 5 4 3 5 4 1 3 3 6 7 7 7 7 6 7 9 9 10 10 9 7 5 7 10 8 8 7 6 5 5 4 4 4
5 3 3 5 4 5 5 3 3 5 4 4 4 5 5 5 3 1 1 1 2 4 5 5 6 8 8 9 9 7 9 10 8 8 7 5 4 3 4 3 3 3 4 3
5 6 6 6 5 4 6 7 6 3 3 3 2 3 6 7 4 4 3 1 1 2 1 1 2 2 3 4 4 5 6 6 4 4 4 4 3 3 2 2 2 2 1 3
8 10 7 8 9 7 7 10 8 9 7 6 7 3 1 3 7 5 5 3 3 1 1 1 2 2 2 2 2 4 5 3 1 1 1 2 3 3 2 1 2 7 9 10
Wind_Direction
350 32 245 255 215 248 272 275 270 275 281 277 273 273 276 271 265 258 254 258 264 266 267 257 259 236 224 215 193 199 240 296 174 180 185 205 208 217 199 189 196 183 187 190
7 257 250 267 267 259 271 285 282 280 276 283 282 274 278 277 266 252 255 261 266 272 270 259 247 237 191 198 241 274 254 274 229 211 195 184 202 217 204 178 181 179 194 193
242 263 307 289 287 286 271 272 283 275 293 269 277 281 256 291 26 4 327 322 314 287 269 262 251 242 236 205 208 216 243 224 211 298 213 166 119 175 206 192 198 201 195 194
274 266 277 310 297 285 287 253 296 291 299 295 87 289 294 8 18 12 354 336 314 315 313 271 262 263 235 232 216 228 192 190 207 347 330 211 206 209 205 205 199 197 195 198
263 290 320 316 252 284 275 304 287 282 283 291 275 248 317 11 358 343 336 329 321 314 303 303 272 259 242 209 193 172 176 229 188 115 345 298 233 225 223 204 189 188 189 192
248 292 249 232 291 292 302 302 297 283 220 271 273 159 33 13 328 326 324 318 309 303 294 283 276 254 201 106 112 104 84 287 7 12 330 259 265 226 223 201 188 185 192 182
324 296 299 259 300 298 339 331 333 353 10 227 247 266 96 0 349 334 324 319 318 303 274 274 278 175 144 123 110 91 45 318 338 346 334 271 275 266 232 182 193 181 196 195
37 334 347 344 358 306 324 21 300 303 301 289 275 245 99 4 348 340 331 323 329 325 290 281 135 135 121 110 90 106 64 79 17 6 348 352 357 1 291 195 219 203 186 142
346 281 302 303 348 354 318 346 275 250 231 282 254 359 265 341 350 344 345 337 342 341 5 66 71 78 78 57 43 57 74 77 51 41 35 39 38 72 67 81 64 66 61 63
257 291 229 292 343 316 156 307 347 322 332 313 356 68 338 339 340 341 343 338 338 343 3 34 46 48 51 42 33 43 51 53 47 55 48 64 63 64 69 51 98 49 46 30
189 172 291 17 336 353 354 351 358 276 53 314 315 84 1 341 331 334 338 337 339 341 356 25 39 35 40 37 34 33 41 37 43 48 41 60 60 73 68 68 61 59 52 49
218 291 276 247 213 73 99 347 321 339 329 317 275 350 3 336 332 336 340 339 335 341 14 24 41 40 39 36 35 39 40 43 42 48 51 54 65 71 77 74 63 72 65 51
12 307 331 345 9 355 24 355 348 306 298 357 354 315 341 340 351 348 349 345 346 8 24 29 37 40 36 32 42 44 41 42 44 52 57 57 51 62 65 67 71 67 68 64
273 251 251 218 249 330 349 351 356 338 358 313 20 328 338 353 358 356 356 357 5 27 30 34 33 34 33 33 42 53 56 51 50 56 61 61 51 51 60 64 66 66 66 66
91 196 294 263 258 246 315 355 352 0 343 10 321 357 1 353 355 360 3 9 22 30 32 33 33 31 29 33 44 55 57 56 52 60 64 55 54 56 56 55 58 60 58 56
21 276 354 294 318 193 304 351 354 4 349 320 332 341 13 356 3 14 12 20 25 29 32 31 26 27 27 28 42 50 51 53 62 57 61 62 50 50 48 47 55 59 63 60
46 63 36 277 341 53 3 301 8 317 1 329 360 333 339 21 14 12 8 12 18 22 23 23 24 29 29 30 36 45 53 62 64 59 52 50 49 53 47 47 53 54 63 68
135 87 142 264 5 29 240 322 183 183 25 356 346 351 1 15 44 18 11 13 18 18 19 23 25 26 25 30 34 47 45 49 53 48 48 44 55 48 49 55 48 51 53 59
179 110 346 73 223 283 307 316 9 45 316 357 344 354 357 342 346 32 13 9 13 14 17 20 26 28 31 30 30 51 50 50 52 47 47 41 42 55 44 53 44 46 63 58
96 60 118 39 120 205 230 117 134 133 346 351 20 2 344 325 54 356 350 2 11 19 24 20 18 26 31 18 24 45 44 40 44 33 39 41 42 49 45 50 47 39 61 63
29 7 168 166 228 287 253 112 148 77 228 147 107 14 3 56 37 339 350 11 13 19 21 20 28 34 21 11 26 45 43 28 14 32 30 47 35 47 40 43 33 38 56 62
175 140 205 75 48 297 176 98 188 179 112 147 164 159 97 94 76 42 19 20 24 21 22 26 42 39 22 15 20 43 40 359 9 34 36 40 31 21 37 53 37 40 57 66
304 185 182 174 214 233 215 247 187 170 150 175 154 159 144 134 65 13 8 8 8 19 28 18 33 41 26 18 24 44 9 358 354 28 28 22 28 29 23 39 38 51 47 65
251 170 187 55 283 225 214 221 215 198 166 148 142 156 165 146 164 129 119 28 9 355 19 4 14 35 26 8 18 13 352 353 13 26 20 13 31 7 23 41 50 69 64 63
195 124 180 264 277 325 259 228 192 164 117 120 75 127 155 147 178 171 178 222 246 166 140 110 105 82 28 335 342 328 336 339 1 10 354 1 351 4 7 25 116 94 219 139
185 185 171 218 195 164 215 183 168 164 186 185 152 153 158 165 168 165 189 203 175 160 332 94 97 86 20 11 8 0 347 342 346 93 10 346 344 341 355 73 47 84 107 109